Flag for Netherlands Weather past 2 weeks in Hilversum, Netherlands

Now
54 °F

Overcast.


Feels Like: 54 °F
Forecast: 49 / 65 °F
Wind: 1 mph from North

Location: De Bilt


UV Index: 3 (Moderate)

Visibility: 1 mi


Pressure: 29.93 "Hg

Humidity: 97%

Dew point: 53 °F

Location of HilversumLocation

Historic Weather in Hilversum

°F

Hilversum temperature yesterday

Maximum temperature yesterday: 68 °F (at 4:00 PM)
Minimum temperature yesterday: 45 °F (at 5:00 AM)
Average temperature yesterday: 56 °F

Past Weeks' High & Low Weather Summary

 TemperatureHumidityPressure
High69 °F (Apr 23, 4:00 PM)100% (Apr 12, 7:00 AM)30.46 "Hg (Apr 12, 7:00 AM)
Low31 °F (Apr 16, 7:00 AM)35% (Apr 17, 3:00 PM)29.64 "Hg (Apr 21, 6:00 PM)
Average52 °F72%30.06 "Hg
* Reported Apr 10 4:00 AM — Apr 25 4:00 AM, Hilversum, Weather by CustomWeather, © 2014

Note: Actual official high and low records may vary slightly from our data, if they occured in-between our weather recording intervals... More about our weather records

Advertising

Historic Weather Conditions — Data for Previous 24 hours

 ConditionsComfort  
Time TempWeatherWind HumidityBarometerVisibility
4:00 AM
Apr 25
54 °FLight rain. Passing clouds.2 mph96%29.93 "Hg2 mi
3:00 AM54 °FFog.2 mph96%29.95 "Hg2 mi
2:00 AM55 °FFog.5 mph93%29.97 "Hg3 mi
1:00 AM56 °FOvercast.5 mph91%29.99 "Hg4 mi
12:00 AM56 °FLight rain. Overcast.2 mph94%30.01 "Hg3 mi
11:00 PM
Apr 24
56 °FLots of rain. Overcast.5 mph92%30.01 "Hg2 mi
10:00 PM56 °FRain. Overcast.5 mph85%30.04 "Hg4 mi
9:00 PM58 °FRain. Overcast.6 mph80%30.03 "Hg1 mi
8:00 PM58 °FOvercast.3 mph96%30.01 "Hg2 mi
7:00 PM58 °FRain. Overcast.5 mph93%30.02 "Hg2 mi
6:00 PM55 °FRain. Overcast.2 mph92%30.03 "Hg5 mi
5:00 PM67 °FLight rain. Partly sunny.5 mph59%30.05 "Hg6 mi
4:00 PM68 °FPassing clouds.5 mph60%30.05 "Hg6 mi
3:00 PM67 °FOvercast.5 mph65%30.07 "Hg5 mi
2:00 PM66 °FScattered clouds.3 mph68%30.09 "Hg4 mi
1:00 PM63 °FOvercast.3 mph72%30.10 "Hg4 mi
12:00 PM62 °FPartly sunny.5 mph72%30.11 "Hg4 mi
11:00 AM60 °FOvercast.2 mph75%30.12 "Hg4 mi
10:00 AM58 °FOvercast.2 mph81%30.12 "Hg4 mi
9:00 AM54 °FRain showers. Overcast.N/A88%30.11 "Hg3 mi
8:00 AM52 °FFog.N/A92%30.11 "Hg2 mi
7:00 AM47 °FFog.1 mph100%30.10 "Hg2 mi
6:00 AM46 °FOvercast.1 mph100%30.09 "Hg1 mi
Weather by CustomWeather, © 2014

See weather overview